STARLINK-37642, 69455

Orbit data source: Space-Track

STARLINK-37642, 69455 is a payload satellite owned by SpaceX/Seattle (US) in LEO that was launched on Mon, 08 Jun 2026 UTC via an FALCON 9 launch vehicle from the Air Force Eastern Test Range (AFETR). Payload-class satellites include a variety of spacecraft equipped with specific instruments for various scientific and technological missions. These include communications satellites like Starlink; space stations such as the ISS; scientific satellites like the Hubble; Earth observation satellites from companies like Planet Labs, Umbra, and HawkEye 360; GPS; miniature CubeSats for education and research; and military/defense satellites.

Not visible in the next 10 days
Identifier
69455, 2026-127N
Orbit
LEO
Country
Flag of USUS
Related business
Manufacturer
SpaceX/Seattle
Mission
Operational spacecraft
Bus & Motor
STARLINK V2MO, Unknown motor
Mass
575 kg wet, ~530 kg dry
Launch date (UTC)
2026-06-08 (2 weeks ago)
Launch vehicle
FALCON 9
Launch site
Air Force Eastern Test Range (AFETR)
Object type
Payload
Rocket body
Debris
Shape & HBR
Unknown
Radar Cross Section
Large (>1 m²)

Expand to show TLE details & history
Last TLE update: 12 hours ago

TLE from 12 hours ago
0 STARLINK-37642
1 69455U 26127N   26171.41668980 -.00045152  00000-0 -29193-3 0  9992
2 69455  53.1593 246.1014 0001004  58.3788  77.9127 15.75240233  3164
Epoch: 2026-06-20T10:00Z
TLE epoch observation values (Epoch: 2026-06-20T10:00:01.998Z)
Latitude
33.67556°
Longitude
-22.29987°
Altitude
346.137 km
Speed
7.706 km/s
True Right ascension
02h 25m 21s
True Declination
33° 30' 26"
Sunlit
Object was in daylight at epoch
Visualization orbit readout
Latitude
Unknown
Longitude
Unknown
Altitude
Unknown
Speed
Unknown
Apparent Right ascension
Unknown
Apparent Declination
Unknown
Sunlit
N/A
Visualization observer readout
Local Sidereal Time
08:32:41
Azimuth
Unknown
Elevation
Unknown
Doppler factor
Unknown
Orbital elements
Apogee altitude
344.884 km
Perigee altitude
343.534 km
Semi-major axis
6,722.346 km
Eccentricity
0.0001
Inclination
53.1593°
RAAN
246.1014°
Arg. of periapsis
58.3788°
True anomaly
77.92395°
Mean anomaly
77.9127°
Eccentric anomaly
77.91833°
Mean motion
3.93787 °/min
Orbital period
91.42 mins
BSTAR
-0.00029193
Loading maneuver chart data...
Computing Atmospheric mass density...
Loading historical data...
Loading historical data...
Loading historical data...
Loading historical data...
Loading historical data...
Loading historical data...
Loading historical data...

Documentation

Showing up to 5 results
|